Temp
-15 -14 -14 -14 -14 -15 -15 -15 -15 -14 -13 -12 -12 -11 -11 -11 -10 -10 -10 -10 -10 -10 -10 -10 -9 -9 -10 -9 -9 -9 -9 -9 -9 -9 -9 -9 -9 -10 -10 -10 -10 -10 -10 -10 -10
-15 -15 -14 -15 -14 -15 -15 -15 -14 -14 -13 -12 -12 -11 -12 -11 -11 -10 -10 -10 -10 -10 -10 -10 -10 -10 -10 -9 -9 -9 -9 -10 -10 -10 -9 -9 -9 -10 -10 -10 -10 -10 -10 -10 -10
-15 -15 -15 -15 -15 -16 -14 -14 -15 -14 -13 -13 -12 -12 -12 -12 -11 -11 -10 -10 -10 -10 -10 -10 -10 -10 -10 -10 -9 -10 -9 -10 -10 -10 -10 -10 -9 -10 -10 -10 -10 -10 -10 -10 -10
-15 -15 -15 -15 -15 -15 -14 -14 -14 -15 -14 -13 -13 -13 -12 -12 -11 -11 -11 -10 -10 -10 -10 -10 -10 -10 -10 -10 -9 -10 -10 -10 -10 -10 -10 -10 -10 -10 -10 -10 -10 -10 -10 -10 -10
-16 -15 -15 -15 -15 -15 -15 -14 -13 -14 -14 -14 -13 -13 -12 -12 -12 -12 -11 -11 -10 -10 -10 -10 -10 -10 -10 -10 -10 -10 -10 -10 -10 -10 -10 -10 -10 -10 -10 -10 -10 -10 -10 -10 -10
-16 -15 -15 -15 -15 -15 -14 -14 -14 -13 -13 -13 -13 -13 -13 -12 -12 -12 -11 -11 -11 -11 -10 -10 -10 -10 -10 -10 -10 -10 -10 -10 -10 -10 -10 -10 -10 -10 -10 -10 -10 -10 -10 -10 -10
-17 -15 -15 -15 -15 -15 -14 -14 -14 -14 -13 -13 -13 -13 -12 -12 -12 -12 -12 -11 -11 -11 -11 -11 -10 -10 -10 -10 -10 -10 -10 -10 -10 -10 -10 -10 -10 -11 -10 -10 -10 -10 -10 -10 -10
-16 -16 -15 -15 -15 -15 -15 -15 -14 -14 -13 -13 -13 -13 -13 -12 -12 -12 -12 -12 -11 -11 -11 -11 -11 -11 -10 -10 -10 -10 -10 -10 -10 -10 -10 -10 -11 -10 -10 -10 -10 -10 -10 -10 -11
-17 -17 -16 -16 -15 -15 -15 -14 -14 -14 -14 -13 -13 -13 -13 -12 -13 -12 -12 -12 -11 -11 -11 -11 -11 -11 -11 -10 -11 -10 -10 -10 -10 -10 -11 -11 -10 -11 -11 -10 -10 -10 -10 -10 -10
-17 -18 -17 -16 -16 -15 -15 -15 -14 -14 -14 -15 -14 -13 -13 -13 -13 -13 -12 -12 -12 -11 -11 -11 -11 -11 -11 -11 -11 -11 -11 -11 -10 -11 -10 -10 -11 -11 -11 -10 -11 -11 -10 -10 -11
-17 -18 -17 -16 -16 -16 -15 -15 -14 -14 -14 -14 -14 -13 -13 -13 -13 -13 -12 -12 -12 -12 -11 -11 -11 -11 -11 -11 -11 -11 -11 -11 -11 -11 -11 -11 -11 -11 -11 -11 -11 -11 -11 -11 -11
-17 -17 -17 -17 -16 -16 -15 -15 -14 -14 -14 -14 -14 -13 -14 -13 -13 -13 -13 -12 -12 -12 -12 -11 -11 -12 -11 -11 -11 -11 -11 -11 -11 -10 -10 -10 -10 -11 -11 -11 -11 -11 -11 -11 -11
-17 -17 -17 -17 -17 -16 -16 -15 -15 -15 -14 -14 -14 -14 -14 -14 -14 -13 -13 -13 -12 -12 -12 -12 -12 -11 -11 -11 -11 -11 -11 -11 -11 -11 -10 -10 -10 -11 -11 -11 -11 -11 -11 -11 -11
-18 -17 -17 -18 -17 -16 -16 -16 -15 -15 -15 -14 -14 -14 -14 -13 -13 -13 -13 -13 -12 -12 -12 -12 -12 -12 -12 -11 -11 -11 -11 -11 -11 -11 -10 -10 -9 -10 -11 -11 -11 -11 -11 -11 -11
-18 -17 -17 -17 -17 -17 -17 -16 -16 -16 -15 -15 -14 -14 -14 -14 -13 -13 -13 -13 -13 -13 -12 -12 -12 -12 -12 -12 -12 -12 -11 -11 -11 -11 -10 -10 -10 -9 -10 -11 -11 -11 -11 -11 -11
-18 -18 -17 -17 -18 -18 -18 -17 -17 -17 -15 -15 -14 -14 -14 -14 -13 -13 -13 -13 -13 -13 -13 -12 -12 -12 -12 -12 -12 -12 -12 -12 -11 -11 -10 -10 -10 -10 -10 -11 -11 -11 -11 -11 -11
-19 -18 -18 -18 -17 -18 -18 -17 -17 -16 -16 -15 -14 -14 -14 -14 -14 -14 -14 -13 -13 -13 -13 -13 -13 -12 -12 -12 -12 -12 -12 -12 -12 -11 -10 -11 -11 -10 -10 -11 -11 -11 -11 -11 -12
-19 -19 -18 -18 -18 -18 -17 -17 -17 -15 -16 -15 -15 -15 -14 -14 -14 -14 -14 -14 -14 -13 -13 -13 -13 -13 -13 -13 -13 -13 -13 -12 -12 -11 -11 -11 -10 -10 -11 -11 -11 -12 -11 -11 -11
-19 -19 -19 -19 -18 -18 -18 -18 -17 -16 -16 -16 -16 -16 -15 -15 -15 -15 -15 -15 -14 -14 -14 -14 -14 -13 -13 -14 -14 -13 -13 -14 -14 -12 -12 -11 -11 -11 -11 -12 -12 -12 -11 -11 -11
-19 -19 -19 -19 -19 -18 -18 -18 -17 -18 -18 -17 -17 -17 -17 -16 -16 -16 -16 -15 -15 -15 -15 -14 -14 -14 -14 -14 -14 -14 -14 -14 -14 -13 -13 -11 -11 -11 -12 -13 -13 -13 -13 -13 -12
-20 -19 -19 -20 -19 -19 -18 -18 -18 -17 -17 -17 -17 -17 -17 -17 -17 -17 -17 -16 -15 -16 -16 -16 -15 -14 -15 -14 -15 -15 -15 -15 -15 -15 -14 -12 -12 -12 -12 -13 -13 -13 -14 -14 -14
-21 -20 -20 -20 -20 -20 -19 -19 -18 -18 -17 -17 -17 -17 -17 -17 -17 -17 -16 -16 -16 -17 -16 -16 -16 -16 -15 -16 -16 -16 -16 -16 -16 -15 -15 -14 -12 -13 -13 -13 -14 -14 -14 -14 -14
-22 -21 -21 -21 -20 -20 -19 -19 -19 -18 -18 -17 -18 -18 -18 -17 -18 -17 -17 -17 -17 -17 -17 -17 -16 -16 -16 -16 -16 -16 -16 -16 -16 -16 -15 -16 -13 -14 -15 -15 -15 -15 -15 -15 -15
-23 -22 -22 -21 -20 -20 -20 -20 -19 -19 -19 -19 -18 -18 -18 -18 -18 -18 -18 -18 -17 -17 -17 -17 -17 -17 -17 -17 -17 -17 -17 -17 -17 -16 -16 -16 -15 -15 -15 -15 -16 -16 -16 -16 -15
-24 -23 -22 -22 -21 -21 -20 -20 -20 -20 -19 -18 -19 -19 -19 -18 -18 -18 -18 -18 -18 -18 -18 -17 -17 -17 -17 -17 -17 -17 -17 -17 -17 -17 -16 -15 -15 -15 -16 -16 -16 -16 -16 -16 -16
-24 -24 -23 -22 -22 -22 -22 -21 -22 -22 -21 -20 -19 -20 -19 -19 -19 -18 -18 -18 -18 -18 -19 -18 -18 -18 -18 -18 -18 -17 -17 -17 -16 -17 -16 -16 -16 -16 -16 -16 -16 -16 -16 -16 -15
-25 -24 -24 -24 -23 -23 -22 -22 -22 -22 -23 -23 -22 -22 -22 -20 -19 -18 -18 -19 -19 -19 -18 -18 -18 -18 -18 -18 -18 -17 -16 -17 -17 -17 -18 -18 -16 -16 -15 -15 -15 -16 -16 -15 -15
Height
5723 5728 5733 5739 5742 5749 5754 5761 5766 5772 5777 5782 5788 5793 5799 5802 5809 5813 5819 5825 5828 5833 5838 5842 5845 5848 5849 5853 5856 5857 5862 5864 5864 5864 5865 5867 5870 5870 5871 5871 5872 5871 5872 5873 5873
5718 5724 5729 5735 5740 5746 5751 5756 5761 5768 5775 5780 5786 5792 5795 5800 5807 5811 5817 5822 5827 5831 5837 5840 5843 5846 5848 5852 5855 5857 5859 5862 5864 5864 5865 5866 5869 5870 5871 5871 5872 5871 5871 5873 5873
5713 5720 5726 5731 5738 5743 5749 5755 5759 5766 5773 5777 5782 5787 5793 5797 5805 5809 5814 5820 5825 5829 5833 5837 5841 5843 5847 5850 5854 5855 5857 5860 5862 5863 5865 5866 5867 5869 5869 5871 5872 5871 5871 5872 5873
5707 5714 5721 5727 5734 5740 5747 5752 5757 5762 5768 5776 5780 5786 5791 5796 5803 5806 5811 5818 5822 5826 5830 5834 5839 5841 5844 5847 5851 5853 5855 5858 5859 5862 5863 5865 5866 5867 5868 5869 5870 5871 5871 5870 5871
5702 5708 5716 5721 5729 5735 5742 5749 5754 5760 5766 5771 5777 5782 5786 5793 5799 5803 5808 5814 5818 5822 5827 5831 5836 5839 5841 5845 5847 5850 5852 5855 5857 5859 5862 5863 5865 5865 5866 5867 5868 5870 5870 5870 5870
5697 5703 5710 5718 5723 5730 5738 5745 5751 5756 5763 5768 5775 5779 5784 5790 5795 5800 5805 5810 5815 5819 5823 5827 5832 5835 5838 5841 5843 5847 5848 5852 5853 5856 5858 5861 5863 5862 5864 5866 5867 5868 5869 5869 5869
5690 5697 5702 5710 5718 5725 5733 5739 5746 5752 5758 5764 5770 5775 5781 5786 5791 5796 5801 5806 5811 5815 5819 5822 5827 5831 5833 5836 5839 5841 5844 5847 5849 5852 5854 5857 5860 5859 5861 5863 5864 5866 5868 5868 5867
5683 5691 5697 5704 5712 5718 5726 5735 5740 5749 5753 5759 5765 5771 5776 5782 5786 5792 5797 5802 5806 5810 5815 5818 5822 5825 5829 5832 5834 5837 5841 5842 5844 5847 5849 5852 5855 5855 5856 5858 5860 5862 5864 5865 5865
5676 5683 5691 5698 5706 5712 5720 5728 5734 5742 5748 5753 5760 5766 5772 5777 5782 5788 5793 5797 5801 5806 5809 5813 5816 5820 5824 5827 5830 5833 5836 5838 5839 5842 5844 5847 5849 5849 5851 5854 5856 5858 5860 5861 5862
5668 5675 5684 5691 5698 5706 5713 5720 5728 5735 5741 5748 5754 5761 5766 5772 5777 5782 5786 5791 5796 5800 5804 5808 5811 5815 5819 5823 5827 5828 5830 5833 5835 5838 5839 5841 5845 5846 5848 5850 5851 5853 5855 5856 5857
5661 5669 5675 5684 5692 5699 5706 5715 5724 5731 5736 5744 5751 5756 5761 5766 5770 5776 5781 5785 5790 5795 5799 5802 5806 5811 5813 5816 5819 5822 5825 5828 5830 5832 5834 5836 5839 5841 5841 5844 5847 5847 5849 5851 5853
5655 5661 5668 5676 5684 5691 5699 5708 5716 5724 5729 5735 5740 5748 5754 5759 5764 5769 5775 5780 5784 5788 5792 5798 5801 5802 5807 5811 5814 5817 5820 5823 5824 5826 5829 5830 5834 5835 5836 5840 5842 5843 5843 5844 5845
5647 5654 5660 5667 5675 5683 5691 5699 5706 5712 5719 5726 5731 5739 5745 5752 5757 5763 5769 5773 5777 5782 5786 5790 5794 5797 5801 5804 5807 5811 5814 5816 5818 5819 5822 5824 5828 5831 5832 5834 5835 5837 5838 5837 5838
5640 5646 5653 5660 5669 5675 5683 5690 5698 5703 5709 5716 5724 5730 5737 5743 5749 5755 5760 5766 5770 5775 5778 5782 5787 5791 5794 5798 5801 5804 5806 5808 5811 5813 5816 5818 5818 5827 5828 5829 5829 5830 5831 5832 5833
5633 5640 5646 5655 5661 5668 5675 5681 5687 5693 5697 5706 5713 5722 5727 5735 5743 5747 5751 5756 5761 5766 5772 5777 5779 5784 5788 5791 5793 5797 5798 5801 5804 5806 5809 5813 5811 5820 5823 5823 5823 5823 5825 5825 5825
5624 5631 5640 5647 5653 5658 5666 5673 5677 5681 5686 5696 5703 5711 5718 5725 5731 5735 5741 5746 5751 5756 5762 5766 5770 5774 5780 5782 5785 5789 5791 5793 5796 5799 5803 5804 5807 5808 5815 5815 5816 5817 5817 5817 5817
5615 5623 5631 5639 5648 5653 5658 5663 5664 5668 5680 5689 5695 5703 5709 5715 5720 5725 5731 5735 5741 5747 5753 5757 5761 5766 5770 5774 5776 5779 5780 5784 5788 5790 5794 5794 5799 5800 5804 5806 5806 5807 5807 5807 5807
5607 5614 5621 5629 5636 5644 5651 5652 5653 5664 5671 5678 5685 5690 5697 5703 5708 5714 5720 5724 5730 5737 5741 5746 5751 5756 5761 5764 5767 5768 5770 5775 5775 5779 5784 5785 5789 5792 5792 5796 5797 5793 5793 5795 5797
5597 5605 5612 5620 5628 5634 5640 5638 5647 5655 5661 5670 5675 5680 5686 5693 5699 5704 5710 5715 5721 5727 5731 5735 5739 5745 5750 5752 5753 5757 5761 5765 5764 5768 5770 5776 5781 5783 5783 5780 5780 5782 5784 5784 5786
5586 5594 5602 5609 5616 5623 5626 5629 5639 5647 5652 5658 5665 5671 5677 5685 5690 5694 5699 5706 5711 5715 5719 5723 5727 5732 5735 5739 5741 5745 5750 5751 5752 5756 5759 5764 5768 5772 5772 5770 5768 5768 5770 5772 5773
5574 5582 5590 5598 5604 5608 5613 5622 5629 5635 5642 5650 5654 5659 5665 5671 5676 5682 5687 5692 5698 5704 5707 5711 5715 5721 5723 5727 5732 5735 5737 5740 5743 5746 5747 5752 5758 5759 5759 5756 5757 5756 5756 5757 5758
5564 5571 5578 5584 5590 5597 5605 5611 5621 5625 5630 5638 5644 5649 5655 5661 5666 5671 5676 5682 5688 5693 5697 5701 5704 5707 5713 5716 5719 5722 5724 5727 5728 5735 5740 5741 5746 5746 5746 5744 5746 5746 5746 5741 5742
5553 5561 5565 5571 5578 5588 5595 5602 5611 5616 5620 5628 5634 5640 5645 5650 5655 5661 5666 5671 5675 5681 5685 5688 5691 5694 5698 5703 5706 5709 5713 5718 5720 5722 5727 5729 5736 5736 5735 5734 5737 5736 5733 5730 5728
5543 5548 5554 5560 5569 5577 5585 5591 5599 5605 5611 5618 5626 5631 5635 5639 5642 5648 5655 5659 5664 5668 5672 5677 5682 5684 5688 5693 5696 5699 5703 5705 5708 5710 5716 5720 5727 5726 5722 5724 5726 5723 5721 5719 5718
5529 5536 5544 5551 5559 5566 5572 5579 5584 5589 5595 5603 5610 5616 5623 5629 5634 5638 5642 5647 5650 5655 5660 5664 5670 5673 5675 5678 5681 5686 5689 5693 5696 5697 5698 5707 5710 5720 5717 5710 5707 5706 5707 5706 5705
5520 5526 5534 5542 5548 5553 5560 5568 5574 5578 5583 5590 5597 5603 5609 5615 5623 5627 5631 5634 5639 5644 5648 5653 5656 5660 5662 5664 5666 5671 5678 5680 5682 5682 5685 5686 5693 5704 5696 5694 5695 5692 5692 5690 5688
5511 5516 5522 5528 5536 5542 5552 5559 5565 5568 5572 5576 5582 5588 5595 5601 5605 5611 5616 5621 5626 5632 5636 5639 5641 5646 5646 5647 5652 5658 5668 5666 5667 5665 5665 5665 5677 5676 5681 5679 5677 5676 5675 5674 5672
Wind_Speed
36 39 44 41 43 39 36 35 33 34 36 35 38 38 43 41 39 38 37 34 33 32 29 27 25 23 21 18 15 13 11 8 9 6 5 5 4 3 2 3 3 2 2 2 2
36 39 43 43 36 38 40 40 39 29 35 39 39 41 38 39 39 39 38 36 34 32 30 28 25 24 21 18 15 13 10 8 7 6 5 5 4 3 2 1 0 1 3 4 3
37 39 43 44 41 39 39 39 30 43 32 34 35 37 37 36 38 38 38 37 36 35 32 29 27 24 21 19 16 15 13 11 10 11 9 7 6 4 3 4 3 2 2 3 3
39 39 42 44 45 43 42 40 39 33 39 32 35 37 37 37 35 35 37 38 36 35 33 31 28 26 23 21 19 19 15 15 15 14 13 11 10 8 6 4 4 6 5 4 5
41 41 42 43 45 44 42 45 39 39 37 34 33 32 32 34 35 35 36 37 36 34 33 32 30 28 26 24 23 21 19 19 18 18 17 15 13 11 12 8 7 7 9 7 6
44 44 44 45 47 49 48 45 43 42 41 40 36 34 31 34 34 34 34 34 35 34 33 32 30 29 27 26 25 25 24 24 24 23 20 19 17 16 15 10 10 10 8 10 10
49 47 46 46 47 48 49 48 45 45 41 39 39 35 37 33 33 33 33 33 33 34 33 32 31 30 28 29 28 27 26 25 26 26 24 23 21 22 18 16 14 12 11 9 12
45 46 47 47 49 48 50 50 48 47 41 42 40 38 36 36 34 34 35 35 35 34 34 32 31 30 30 29 28 27 26 26 27 27 26 25 24 25 24 21 19 14 13 12 12
46 48 47 47 49 49 53 52 50 51 44 46 40 40 39 39 36 35 36 34 35 34 34 32 31 31 30 29 28 27 26 27 27 28 27 27 26 29 27 24 21 18 15 15 15
54 51 46 49 49 52 52 52 55 57 55 51 45 41 39 38 38 37 35 35 35 34 33 31 31 31 30 28 27 29 30 28 28 28 27 28 27 28 29 27 25 21 19 19 17
49 52 55 46 49 51 53 53 55 57 54 51 52 47 43 42 40 39 38 36 35 34 33 32 31 30 29 31 32 31 30 30 30 30 31 29 27 29 32 29 27 24 23 22 21
45 50 51 59 50 52 53 55 55 57 57 62 57 53 47 46 44 41 40 38 36 34 33 33 31 31 31 31 30 30 29 29 30 30 30 30 28 29 32 29 27 26 25 25 24
43 42 53 54 49 50 51 53 56 56 58 58 58 59 52 51 49 46 45 41 39 37 35 34 33 33 32 31 31 31 31 30 32 31 31 30 28 28 30 29 29 27 27 28 28
48 46 45 53 55 45 49 50 53 55 57 59 59 59 56 54 52 49 47 44 41 38 38 37 36 35 33 33 32 33 34 34 33 34 33 31 30 25 28 29 29 29 29 29 29
42 51 45 45 50 53 47 48 50 55 57 58 59 58 56 55 53 51 50 48 45 44 42 40 38 36 36 36 35 34 35 35 36 35 35 34 37 27 25 28 29 30 29 30 31
49 45 44 47 47 50 49 45 48 53 60 58 59 59 57 56 56 55 53 51 49 48 46 45 43 42 41 40 40 38 38 37 37 37 37 37 36 37 30 30 30 30 32 33 33
38 45 53 47 53 51 53 48 53 52 54 57 57 58 57 56 55 55 54 53 52 51 50 49 47 46 45 44 45 44 44 42 42 42 40 41 40 40 37 34 35 34 35 36 38
44 41 46 49 45 46 56 51 56 56 53 52 53 55 58 55 56 56 53 53 54 53 52 51 51 49 48 47 46 46 46 46 46 46 45 46 43 42 42 38 37 39 41 41 42
47 42 39 42 44 34 45 53 49 52 53 55 56 53 49 48 47 51 54 54 52 51 51 52 52 52 50 50 50 50 50 45 47 50 51 49 46 44 45 45 43 43 44 45 45
50 51 51 45 48 53 45 48 53 50 50 52 51 53 56 53 53 50 49 48 47 47 46 47 47 48 48 50 51 52 50 48 49 51 52 53 50 47 46 44 46 44 44 43 47
56 57 55 50 47 54 59 51 46 48 52 52 49 50 53 52 48 49 47 51 54 53 52 51 52 53 51 52 49 48 48 46 46 48 51 51 48 48 49 50 50 50 48 47 47
51 59 58 54 57 56 53 49 54 54 53 53 49 48 49 49 51 50 53 47 44 46 48 51 56 56 54 51 51 49 49 50 50 48 46 49 54 51 51 51 51 52 53 54 52
49 53 52 54 58 57 55 48 49 55 53 55 49 43 47 49 46 47 49 49 51 50 48 47 49 52 57 56 54 53 51 49 47 46 50 48 53 50 47 47 44 45 47 47 48
50 52 52 55 57 55 57 60 56 55 51 45 46 45 44 39 36 42 42 43 50 48 55 55 51 52 51 49 48 47 46 45 46 47 47 46 44 45 48 48 46 48 51 53 52
50 51 52 53 55 54 56 59 63 58 59 61 56 50 50 61 51 45 48 45 36 49 50 55 58 55 55 54 53 51 51 51 51 52 54 52 54 50 53 59 60 59 60 60 61
50 50 49 51 51 52 54 56 54 58 59 61 59 56 61 60 60 58 54 56 57 53 50 55 53 57 58 57 57 58 57 58 59 62 63 68 65 59 65 67 67 69 70 72 73
50 50 49 50 50 50 49 50 49 46 47 51 53 52 56 60 63 70 68 62 61 60 62 63 65 63 66 64 63 64 60 63 65 70 68 70 65 67 66 68 70 72 74 76 78
Wind_Direction
201 195 191 199 193 185 181 183 185 185 184 188 184 182 181 176 176 175 178 179 177 178 179 179 175 174 172 176 175 169 173 176 153 149 146 134 140 135 88 70 76 46 42 26 21
202 197 193 197 201 184 186 189 177 190 188 186 184 185 181 181 182 181 181 181 182 182 184 183 182 184 181 184 188 185 189 186 184 190 187 172 169 170 167 116 80 34 350 36 25
202 199 196 193 190 192 197 194 197 180 192 188 186 185 184 185 188 186 185 188 188 189 189 190 191 190 193 198 200 201 207 202 202 208 214 210 199 189 187 229 247 267 310 340 352
203 201 200 193 190 191 196 193 193 199 185 193 188 188 185 189 190 192 191 194 195 193 195 195 199 201 202 207 212 215 214 220 218 224 222 218 221 219 211 220 247 265 268 299 310
206 201 202 200 195 196 196 195 196 189 195 198 191 191 190 193 193 195 196 199 200 200 200 203 206 209 211 216 221 226 225 229 229 231 228 230 227 226 232 212 246 255 270 272 284
207 204 200 203 200 196 199 199 199 195 195 192 200 196 195 198 199 199 200 201 203 205 206 208 211 213 215 218 223 228 230 232 233 238 233 234 233 236 234 229 232 246 256 268 270
206 207 201 204 204 200 200 196 202 204 198 198 200 200 202 204 204 205 205 206 207 207 209 210 212 215 216 223 226 228 230 234 237 238 237 235 237 238 245 240 239 239 253 259 263
211 211 208 204 206 205 200 205 204 200 204 207 205 205 205 208 208 208 209 210 211 211 213 213 216 218 219 223 227 230 232 234 239 240 238 239 239 240 246 243 244 241 247 256 256
206 211 211 209 208 209 205 207 208 206 208 212 213 211 209 210 210 211 212 212 213 216 217 217 219 220 223 225 230 232 236 237 239 241 241 241 238 242 242 246 248 248 246 251 256
210 213 211 211 211 209 210 210 209 212 210 212 220 216 214 215 213 216 215 215 216 218 221 222 223 223 226 228 233 234 237 239 241 244 243 243 241 247 252 247 248 250 249 246 249
217 211 212 209 215 212 211 211 210 212 210 215 218 217 220 219 220 219 219 219 219 220 222 225 225 228 229 230 234 238 239 240 242 242 244 244 240 242 246 248 245 245 247 251 253
211 218 215 216 214 216 213 213 213 215 216 217 224 219 223 224 224 223 222 222 223 223 224 227 229 229 232 235 239 241 243 245 246 246 247 247 243 243 247 249 247 245 247 246 247
218 222 220 216 210 214 216 216 216 217 218 218 217 220 226 225 226 226 226 225 224 225 226 228 228 232 234 236 240 243 244 245 246 246 248 248 244 241 246 248 249 246 243 246 247
221 222 218 212 209 213 216 217 219 221 221 221 222 224 225 224 226 227 228 228 229 229 230 231 233 234 237 239 241 243 245 246 247 248 249 252 249 239 243 248 248 247 247 247 251
216 225 226 213 215 211 216 217 218 220 223 222 223 223 225 226 227 229 231 231 231 232 233 235 237 239 241 243 243 244 247 248 249 251 251 252 258 243 243 248 251 252 249 246 250
226 218 227 233 217 213 211 217 219 220 223 225 225 225 226 227 227 228 230 231 232 235 236 237 238 239 240 243 245 247 248 249 250 251 252 252 255 255 251 249 247 248 253 253 250
212 221 224 222 219 216 214 228 228 224 223 224 228 228 227 229 231 231 232 233 234 236 237 240 240 242 243 244 245 247 247 248 250 250 253 253 251 257 258 255 257 255 249 247 249
215 223 217 215 212 222 222 235 235 230 233 231 227 226 228 229 230 232 233 235 237 238 238 238 241 242 243 245 245 243 244 246 247 249 250 253 255 256 261 259 256 260 257 253 251
207 213 215 218 215 222 222 222 233 234 235 233 229 226 227 226 228 230 233 235 236 238 240 241 242 244 243 242 244 245 246 247 248 249 250 250 253 255 259 265 264 257 255 258 261
216 221 224 223 216 210 206 224 228 230 229 229 231 232 232 236 239 234 231 231 231 235 237 237 236 237 237 240 241 243 243 243 246 249 250 252 250 253 258 263 265 265 262 257 258
233 228 226 227 226 218 210 211 222 225 228 228 227 231 230 228 227 228 229 233 233 233 234 236 238 238 239 240 241 243 244 245 247 246 250 252 253 254 254 257 259 264 267 266 264
229 235 234 232 231 227 225 225 219 230 228 227 227 229 225 228 227 230 232 232 231 232 235 239 241 242 242 240 241 242 242 243 245 248 251 253 252 257 257 258 262 266 268 271 273
225 227 227 229 229 227 226 220 217 214 226 228 230 230 235 234 238 231 232 234 235 236 232 236 238 240 242 242 241 243 245 247 247 247 248 249 253 257 261 263 265 265 267 269 269
224 225 225 226 228 226 225 226 221 217 212 208 216 213 220 204 219 230 231 237 237 240 237 239 238 239 240 242 242 242 242 245 249 252 252 254 253 259 266 266 266 264 262 263 265
225 225 224 226 225 228 227 227 229 231 230 222 216 220 226 228 216 216 226 208 207 223 229 230 232 230 232 235 238 241 245 249 253 257 260 263 261 259 264 266 266 265 265 265 267
223 226 226 227 228 227 228 228 232 235 234 235 235 237 232 227 224 221 215 218 224 228 227 230 233 232 236 239 239 242 247 251 255 259 262 267 266 263 263 262 263 265 266 268 269
222 224 225 226 226 228 229 230 231 230 234 238 237 231 236 239 236 231 237 236 231 233 236 241 243 245 250 257 256 246 247 251 260 267 269 268 270 265 263 263 265 265 266 266 267